Yuma, AZ

12:05 AM MST on September 30, 2016 (GMT -0700)
Yuma Marine Corps Air Station

Weather History for KNYL - December, 2012

Change the Weather History Date:

Sunday, December 30, 2012

  Actual Average Record
Temperature  
Mean Temperature 53 °F 57 °F  
Max Temperature 62 °F 68 °F 84 °F (1980)
Min Temperature 43 °F 46 °F 30 °F (1895)
Degree Days  
Heating Degree Days 12 8  
Month to date heating degree days 200 224  
Since 1 July heating degree days 222 292  
Cooling Degree Days 0 0  
Month to date cooling degree days 19 0  
Year to date cooling degree days 4933 4649  
Growing Degree Days 3 (Base 50)    
Moisture  
Dew Point 33 °F    
Average Humidity 46    
Maximum Humidity 63    
Minimum Humidity 29    
Precipitation  
Precipitation T in 0.01 in 0.14 in (1925)
Month to date precipitation 0.60 0.49  
Year to date precipitation 2.97 3.54  
Sea Level Pressure  
Sea Level Pressure 29.93 in    
Wind  
Wind Speed 5 mph (WNW)    
Max Wind Speed 16 mph    
Max Gust Speed 21 mph    
Visibility 10 miles    
Events Rain    
T = Trace of Precipitation, MM = Missing Value Source: NWS Daily Summary

Daily Weather History Graph

Daily Weather History Graph

Search for Another Location

Airport or City:

Trip Planner

Search our weather history database for the weather conditions in past years. The results will help you decide how hot, cold, wet, or windy it might be!

Date:

Astronomy

Dec. 30, 2012 Rise Set
Actual Time 7:40 AM MST 5:42 PM MST
Civil Twilight 7:13 AM MST 6:09 PM MST
Nautical Twilight 6:42 AM MST 6:40 PM MST
Astronomical Twilight 6:12 AM MST 7:10 PM MST
Moon 8:08 PM MST 8:59 AM MST
Length of Visible Light 10h 56m
Length of Day
10h 02m
Waning Gibbous, 95% of the Moon is Illuminated
Dec 30
Waning Gibbous
Jan 4
Last Quarter
Jan 11
New
Jan 18
First Quarter
Jan 26
Full

Hourly Weather History & Observations

Time (MST) Temp. Dew Point Humidity Pressure Visibility Wind Dir Wind Speed Gust Speed Precip Events Conditions
12:55 AM 48.0 °F 30.9 °F 52% 29.96 in 10.0 mi Calm Calm - N/A   Overcast
1:55 AM 46.9 °F 30.0 °F 52% 29.95 in 10.0 mi Calm Calm - N/A   Overcast
2:55 AM 46.9 °F 30.0 °F 52% 29.95 in 10.0 mi Calm Calm - N/A   Overcast
3:55 AM 46.9 °F 30.0 °F 52% 29.94 in 10.0 mi Calm Calm - N/A   Overcast
4:55 AM 45.0 °F 32.0 °F 60% 29.93 in 10.0 mi Calm Calm - N/A   Overcast
6:55 AM 45.0 °F 30.0 °F 56% 29.93 in 10.0 mi Calm Calm - N/A   Mostly Cloudy
7:55 AM 45.0 °F 32.0 °F 60% 29.95 in 10.0 mi Calm Calm - N/A   Mostly Cloudy
8:55 AM 45.0 °F 30.9 °F 58% 29.95 in 10.0 mi Calm Calm - N/A   Mostly Cloudy
9:55 AM 46.9 °F 30.9 °F 54% 29.97 in 10.0 mi Calm Calm - N/A   Mostly Cloudy
10:55 AM 54.0 °F 30.9 °F 41% 29.96 in 10.0 mi NW 4.6 mph - N/A   Scattered Clouds
11:55 AM 59.0 °F 34.0 °F 39% 29.94 in 10.0 mi NW 9.2 mph - N/A   Partly Cloudy
12:55 PM 59.0 °F 34.0 °F 39% 29.91 in 10.0 mi WNW 8.1 mph - N/A   Partly Cloudy
1:55 PM 61.0 °F 30.9 °F 32% 29.88 in 10.0 mi West 10.4 mph - N/A   Scattered Clouds
2:55 PM 61.0 °F 30.9 °F 32% 29.86 in 10.0 mi NW 6.9 mph 16.1 mph N/A   Scattered Clouds
3:55 PM 61.0 °F 28.9 °F 30% 29.86 in 10.0 mi West 11.5 mph - N/A   Scattered Clouds
4:55 PM 59.0 °F 30.9 °F 35% 29.86 in 10.0 mi West 9.2 mph - N/A   Mostly Cloudy
5:55 PM 57.0 °F 33.1 °F 40% 29.87 in 10.0 mi West 5.8 mph - N/A   Overcast
6:55 PM 55.0 °F 35.1 °F 47% 29.90 in 10.0 mi WSW 5.8 mph - N/A   Overcast
7:55 PM 53.1 °F 37.9 °F 57% 29.94 in 10.0 mi West 12.7 mph - N/A   Overcast
8:55 PM 51.1 °F 39.0 °F 63% 29.96 in 10.0 mi West 8.1 mph - N/A   Mostly Cloudy
9:55 PM 51.1 °F 39.9 °F 66% 29.97 in 10.0 mi NNW 10.4 mph - 0.00 in Rain Light Rain
10:55 PM 51.1 °F 37.0 °F 59% 29.99 in 10.0 mi WNW 6.9 mph - 0.00 in   Mostly Cloudy
11:55 PM 50.0 °F 37.9 °F 63% 29.99 in 10.0 mi West 4.6 mph - N/A   Mostly Cloudy